Torna al catalogo

NOAA 17 DEB

AttivoPO
NORAD 48746·DEBRIS·🇺🇸 United States

Lanciato Jun 24, 2002 da Vandenberg Space Force Base

Loading…

Prossimi Passaggi (prossime 24 ore)

TLE

AggiornatoSource: Space-Track

Epoca: Sep 13, 2026, 21:48 UTC

1 48746U 02032CF  26256.90858331  .00010701  00000-0  22240-2 0  9995
2 48746  98.7496 237.7070 0038148  16.0269 344.2126 14.59824874285579

Traccia NOAA 17 DEB in tempo reale con AllMySat

Download on the App Store